[[{"header":{"parameterUnit":"m.s-1","parameterCategory":1,"la1":30.2991,"la2":30.254,"lo1":-89.0895,"lo2":-89.0444,"dy":0.0017,"dx":0.0017,"nx":28,"ny":28,"refTime":"2024-06-07T21:00:00:Z","depth":0,"parameterNumber":2,"parameterNumberName":"U-component_of_WINDS"},"data":[0,0,0,0,0,0,0,0,0,0,0,0,0,0,0,0,0,0,0,0,0,0,0,0,0,0,0,0,0,0,0,0,0,0,0,0,0,0,0,0,0,0,0,0,0,0,0,0,0,0,0,0,0,0,0,0,0,0,2.6414,2.6414,0,2.6468,2.6469,2.647,2.6435,2.6433,2.6432,2.643,2.6482,2.6485,2.6488,0,0,0,0,0,0,0,0,0,0,0,0,0,2.6276,2.6278,2.6414,2.6415,2.6415,2.6468,2.6469,2.647,2.6435,2.6433,2.6431,2.643,2.6481,2.6485,2.6488,0,0,0,0,0,0,0,0,0,0,0,0,0,2.6333,2.6279,2.6414,2.6404,2.6404,2.6468,2.6469,2.647,2.6436,2.6433,2.6431,2.6429,2.648,2.6485,2.6489,2.6564,0,0,2.6502,2.6504,0,0,0,0,0,0,0,0,2.633,2.6338,2.6405,2.6405,2.6405,2.6443,2.6439,2.6501,2.6436,2.6424,2.643,2.6427,2.6471,2.6476,2.6491,2.6566,2.6568,2.6502,2.6505,2.6507,2.6508,0,0,0,0,0,0,0,2.6326,2.6336,2.6435,2.6406,2.6406,2.6396,2.6402,2.6451,2.646,2.6425,2.6422,2.6429,2.647,2.6487,2.6492,2.6569,2.6502,2.6506,2.6509,2.651,2.6707,2.6709,0,0,0,0,0,0,2.6324,2.6333,2.6434,2.6437,2.6361,2.6401,2.6407,2.6433,2.6459,2.6461,2.6431,2.6427,2.6481,2.6487,2.6494,2.6582,2.6507,2.6511,2.6513,2.6704,2.6707,2.671,0,0,0,0,0,0,2.6321,2.6333,2.6431,2.6384,2.6396,2.6406,2.6435,2.6435,2.6452,2.6465,2.6465,2.6447,2.6479,2.6488,2.6546,2.6583,2.6513,2.6517,2.6701,2.6705,2.6709,2.6759,0,0,0,0,0,0,2.6317,2.6332,2.6362,2.6385,2.6399,2.6484,2.6437,2.6438,2.646,2.6455,2.648,2.6481,2.6478,2.654,2.6551,2.6588,2.652,2.6698,2.6703,2.6707,2.6754,2.6765,2.6773,0,0,0,0,0,2.6312,2.6373,2.6363,2.6376,2.6436,2.6487,2.6494,2.649,2.6463,2.6492,2.65,2.648,2.6578,2.6547,2.6558,2.6597,2.6695,2.6701,2.6707,2.675,2.6763,2.6773,0,0,0,0,0,0,2.6352,2.6376,2.6365,2.6436,2.646,2.6481,2.6517,2.6504,2.6534,2.6529,2.6522,2.6527,2.6588,2.6599,2.6563,2.667,2.6632,2.6641,2.6661,2.6673,2.6682,2.6677,2.6524,0,0,0,0,0,2.637,2.641,2.6428,2.6489,2.6501,2.6508,2.6529,2.6524,2.6548,2.6557,2.657,2.6592,2.6628,2.6651,2.6685,2.6756,2.676,2.6789,2.6798,2.6806,2.6813,2.685,2.6862,2.6729,2.6729,2.6729,0,0,2.6405,2.6423,2.6449,2.6497,2.6515,2.6555,2.6516,2.6561,2.659,2.6564,2.662,2.663,2.6654,2.672,2.6749,2.673,2.685,2.6813,2.6819,2.6822,2.6857,2.6869,2.6881,2.6733,2.6733,2.6732,0,0,2.649,2.6509,2.6561,2.658,2.6608,2.6611,2.6624,2.6647,2.6653,2.6709,2.669,2.6725,2.6787,2.6804,2.6821,2.6914,2.6896,2.6925,2.6973,2.7009,2.702,2.7029,2.706,2.7071,2.6932,2.6932,2.6932,0,2.6531,2.6592,2.6589,2.6635,2.6656,2.6636,2.6687,2.6706,2.6742,2.6757,2.6736,2.6812,2.6827,2.6896,2.6918,2.6934,2.6946,2.6921,2.7019,2.7028,2.7037,2.7066,2.7078,2.6935,2.6935,2.6935,2.6934,0,2.6639,2.6682,2.6721,2.6758,2.6783,2.6832,2.6835,2.6861,2.6854,2.686,2.6917,2.6934,2.697,2.6987,2.698,2.7054,2.7041,2.702,2.6981,2.7052,2.708,2.7091,2.694,2.6939,2.6938,2.6937,0,0,2.675,2.6786,2.6799,2.6815,2.6845,2.6877,2.6924,2.6961,2.6982,2.7009,2.7046,2.71,2.708,2.7099,2.7095,2.7127,2.7197,2.7101,2.7102,2.7117,2.7277,2.7291,2.7304,2.7186,2.7188,2.719,2.7274,0,2.6835,2.6919,2.6918,2.6994,2.7033,2.7014,2.7055,2.7077,2.7083,2.7116,2.7122,2.7159,2.7132,2.7143,2.7174,2.7182,2.7228,2.7176,2.7219,2.7221,2.7211,2.7319,2.7334,2.7413,2.7285,2.7287,2.7288,0,2.6946,2.6977,2.7058,2.7081,2.7097,2.7134,2.7166,2.7198,2.7222,2.7224,2.7247,2.7237,2.7283,2.7245,2.7307,2.7271,2.7289,2.7296,2.7299,2.7301,2.7257,2.7322,2.7438,2.7448,2.7305,2.7304,2.7303,0,2.7016,2.7078,2.7134,2.7148,2.7177,2.7203,2.7216,2.7237,2.7259,2.7288,2.7301,2.7335,2.7352,2.7378,2.7377,2.7349,2.7439,2.7401,2.7441,2.7441,2.7459,2.7457,2.7577,2.7474,2.7474,2.7474,2.7474,0,2.711,2.716,2.7165,2.72,2.7254,2.7252,2.7306,2.7316,2.7335,2.737,2.7356,2.7388,2.7386,2.7419,2.7418,2.7469,2.7478,2.7479,2.7478,2.7479,2.7479,2.7489,2.7483,2.7477,2.7476,2.7476,2.7475,0,2.7196,2.7203,2.7262,2.7285,2.7292,2.7331,2.7349,2.7381,2.7387,2.7431,2.7441,2.7449,2.7487,2.7489,2.7532,2.7532,2.7593,2.7587,2.7585,2.7583,2.7621,2.7617,2.775,2.7766,2.7655,2.7656,2.7657,0,2.7255,2.7293,2.732,2.7343,2.7357,2.7395,2.7417,2.7416,2.744,2.7469,2.7497,2.7534,2.7563,2.7623,2.7632,2.7665,2.7658,2.7703,2.7663,2.7662,2.7656,2.7653,2.7655,2.7709,2.7711,2.7712,2.7713,0,2.7358,2.7359,2.7392,2.7427,2.7454,2.7481,2.7506,2.7525,2.7527,2.7554,2.7593,2.7616,2.766,2.7696,2.7728,2.7739,2.7726,2.7726,2.7736,2.7736,2.7733,2.7733,2.7603,2.7722,2.7721,2.772,2.772,2.7719,2.743,2.7463,2.7487,2.7524,2.7543,2.7567,2.7597,2.7607,2.764,2.7677,2.7674,2.7717,2.7738,2.778,2.7794,2.7827,2.7811,2.7827,2.783,2.7833,2.7836,2.773,2.7833,2.7832,2.7832,2.7832,2.7832,0,2.753,2.7545,2.758,2.7615,2.7645,2.7632,2.7658,2.7683,2.7721,2.7743,2.7772,2.7816,2.7851,2.7863,2.7896,2.792,2.7914,2.7928,2.7925,2.7927,2.785,2.7836,2.7932,2.7932,2.7932,2.7932,2.7932,2.7932,2.7585,2.7639,2.7643,2.7705,2.7719,2.7761,2.7778,2.7799,2.7816,2.7866,2.7896,2.7904,2.7922,2.7956,2.7987,2.7989,2.8001,2.8017,2.8017,2.7943,2.7933,2.7923,2.7911,2.8021,2.8021,2.8092,2.8093,2.8093]},{"header":{"parameterUnit":"m.s-1","parameterCategory":1,"la1":30.2991,"la2":30.254,"lo1":-89.0895,"lo2":-89.0444,"dy":0.0017,"dx":0.0017,"nx":28,"ny":28,"refTime":"2024-06-07T21:00:00:Z","depth":0,"parameterNumber":3,"parameterNumberName":"V-component_of_WINDS"},"data":[0,0,0,0,0,0,0,0,0,0,0,0,0,0,0,0,0,0,0,0,0,0,0,0,0,0,0,0,0,0,0,0,0,0,0,0,0,0,0,0,0,0,0,0,0,0,0,0,0,0,0,0,0,0,0,0,0,0,2.645,2.6451,0,2.6528,2.6529,2.653,2.6494,2.6492,2.649,2.6488,2.6567,2.657,2.6574,0,0,0,0,0,0,0,0,0,0,0,0,0,2.6267,2.627,2.645,2.6451,2.6452,2.6528,2.6529,2.653,2.6494,2.6492,2.6489,2.6487,2.6565,2.657,2.6575,0,0,0,0,0,0,0,0,0,0,0,0,0,2.6346,2.6271,2.645,2.6443,2.6443,2.6528,2.6529,2.6531,2.6495,2.6492,2.6489,2.6486,2.6564,2.6569,2.6575,2.6671,0,0,2.6593,2.6596,0,0,0,0,0,0,0,0,2.6341,2.6352,2.6443,2.6444,2.6444,2.6498,2.6493,2.6577,2.6495,2.6475,2.6488,2.6484,2.6546,2.6553,2.6574,2.6674,2.6678,2.6594,2.6597,2.66,2.6602,0,0,0,0,0,0,0,2.6336,2.6349,2.6481,2.6445,2.6445,2.6435,2.6443,2.6509,2.6526,2.6477,2.6474,2.6484,2.6546,2.6569,2.6576,2.6679,2.6594,2.6599,2.6602,2.6605,2.6859,2.6862,0,0,0,0,0,0,2.6331,2.6345,2.6479,2.6483,2.6384,2.6441,2.645,2.6484,2.6525,2.6529,2.6486,2.6482,2.656,2.6569,2.6579,2.6692,2.66,2.6605,2.6609,2.6856,2.686,2.6863,0,0,0,0,0,0,2.6327,2.6343,2.6475,2.6413,2.6429,2.6447,2.6486,2.6487,2.651,2.6533,2.6535,2.6507,2.6558,2.657,2.6648,2.6695,2.6608,2.6613,2.6852,2.6857,2.6862,2.6921,0,0,0,0,0,0,2.6322,2.6342,2.6379,2.6414,2.6433,2.6545,2.6489,2.6491,2.652,2.6515,2.6553,2.6556,2.6557,2.6639,2.6654,2.6701,2.6618,2.6848,2.6854,2.686,2.6915,2.6928,2.6938,0,0,0,0,0,2.6315,2.6393,2.6381,2.6398,2.648,2.6547,2.6558,2.6557,2.6524,2.6561,2.6576,2.6555,2.6687,2.6647,2.6663,2.6713,2.6845,2.6852,2.686,2.691,2.6925,2.6938,0,0,0,0,0,0,2.6363,2.6398,2.6385,2.6477,2.6509,2.6541,2.6588,2.6573,2.6616,2.6609,2.6606,2.6615,2.6695,2.6712,2.6667,2.6807,2.6761,2.6772,2.6794,2.6808,2.6819,2.6814,2.6623,0,0,0,0,0,2.6384,2.6437,2.6464,2.6542,2.6559,2.657,2.66,2.6596,2.663,2.6644,2.6664,2.6696,2.6745,2.6777,2.6823,2.6917,2.6924,2.6959,2.697,2.6979,2.6989,2.7039,2.7055,2.6887,2.6887,2.6887,0,0,2.6428,2.6454,2.6487,2.6552,2.6577,2.663,2.6582,2.6641,2.6681,2.6652,2.6727,2.6742,2.6779,2.6864,2.6903,2.6881,2.7037,2.6989,2.6996,2.7001,2.7048,2.7064,2.7078,2.6892,2.6891,2.689,0,0,2.6537,2.6561,2.6629,2.6654,2.6692,2.6699,2.6715,2.6749,2.6759,2.6833,2.6813,2.6858,2.6943,2.6969,2.6994,2.7109,2.7092,2.7124,2.7185,2.7233,2.7246,2.7258,2.7299,2.7314,2.7133,2.7133,2.7134,0,2.6587,2.6668,2.6665,2.6725,2.6754,2.673,2.6798,2.6822,2.6873,2.6893,2.6867,2.6971,2.6994,2.7085,2.7113,2.7134,2.7151,2.7121,2.7245,2.7256,2.7267,2.7306,2.7322,2.7137,2.7137,2.7136,2.7136,0,2.6727,2.6783,2.6833,2.6883,2.6917,2.6981,2.6986,2.7021,2.7014,2.7023,2.7098,2.7124,2.7175,2.7196,2.719,2.7286,2.727,2.7245,2.7198,2.7287,2.7324,2.7339,2.7143,2.7141,2.714,2.7139,0,0,2.687,2.6916,2.6935,2.6957,2.6996,2.7039,2.71,2.715,2.7179,2.7214,2.7266,2.7336,2.7312,2.734,2.7336,2.7378,2.7468,2.7347,2.7347,2.7369,2.7575,2.7595,2.7612,2.7455,2.7458,2.746,2.7572,0,2.6981,2.7091,2.7089,2.719,2.7241,2.7218,2.7271,2.73,2.731,2.7354,2.7364,2.7414,2.7378,2.7395,2.7435,2.7448,2.7509,2.744,2.7503,2.7505,2.7496,2.7632,2.7654,2.7758,2.7586,2.7589,2.759,0,2.7127,2.7167,2.7273,2.7304,2.7325,2.7373,2.7418,2.746,2.7492,2.7496,2.7526,2.7515,2.7576,2.7526,2.761,2.7563,2.7588,2.7598,2.7602,2.7609,2.7554,2.7643,2.7791,2.7807,2.7613,2.7611,2.761,0,2.7221,2.7301,2.7375,2.7394,2.7432,2.7466,2.7483,2.7512,2.7541,2.7579,2.7598,2.7643,2.7667,2.7702,2.7702,2.7666,2.7787,2.7738,2.7792,2.7792,2.782,2.7818,2.7975,2.7834,2.7834,2.7834,2.7833,0,2.7346,2.7412,2.7418,2.7463,2.7535,2.7532,2.7603,2.7616,2.7642,2.7689,2.767,2.7714,2.7712,2.7756,2.7757,2.7826,2.7837,2.7842,2.7841,2.7844,2.7844,2.7862,2.7855,2.7838,2.7837,2.7836,2.7835,0,2.7465,2.7471,2.755,2.7578,2.7586,2.7639,2.7662,2.7705,2.7712,2.7771,2.7785,2.7796,2.7847,2.785,2.7909,2.7909,2.7993,2.7984,2.7983,2.7982,2.8036,2.8031,2.821,2.8233,2.8077,2.8078,2.808,0,2.7545,2.7595,2.7629,2.7659,2.7678,2.7727,2.7756,2.7753,2.7785,2.7824,2.7861,2.791,2.795,2.8032,2.8045,2.8089,2.8082,2.8141,2.8088,2.8089,2.8083,2.8081,2.8086,2.8152,2.8154,2.8155,2.8156,0,2.7688,2.7688,2.7732,2.7776,2.7812,2.7847,2.7879,2.7905,2.7905,2.7941,2.7993,2.8024,2.8083,2.8132,2.8175,2.8191,2.8174,2.8173,2.8188,2.8192,2.8189,2.8192,2.8012,2.8169,2.8168,2.8167,2.8166,2.8166,2.779,2.7833,2.7863,2.7912,2.7936,2.7966,2.8007,2.8019,2.8062,2.8111,2.8106,2.8163,2.8192,2.8248,2.8267,2.8311,2.8291,2.8313,2.8318,2.8324,2.833,2.8181,2.8319,2.8318,2.8318,2.8318,2.8318,0,2.7932,2.7949,2.7994,2.804,2.8078,2.8058,2.8092,2.8125,2.8176,2.8204,2.8243,2.8302,2.8349,2.8364,2.8409,2.8441,2.8435,2.8453,2.8452,2.8456,2.8345,2.8328,2.8458,2.8458,2.8458,2.8458,2.8458,2.8458,2.801,2.8082,2.8085,2.8168,2.8184,2.8241,2.8262,2.829,2.8312,2.8379,2.8417,2.8427,2.845,2.8496,2.8537,2.854,2.8558,2.858,2.8581,2.8478,2.8464,2.845,2.8434,2.8584,2.8584,2.8687,2.8688,2.8689]}]]